(140939) = 2001 VZ89

Discovered at Socorro on 2001-11-15 by LINEAR.

Orbit

Orbit type: Main Belt

Note: WebGL enabled browser required.

epoch2024-03-31.0
epoch JD2460400.5
perihelion date2022-04-27.02539
perihelion JD2459696.52539
argument of perihelion (°)43.53918
ascending node (°)80.87850
inclination (°)16.98899
eccentricity0.2123423
perihelion distance (AU)2.2815747
Tisserand w.r.t. Jupiter3.2
ΔV w.r.t. Earth (km/sec)10.8
semimajor axis (AU)2.8966578
mean anomaly (°)140.73919
mean daily motion (°/day)0.19992080
aphelion distance (AU)3.512
period (years)4.93
P-vector [x]-0.53554080
P-vector [y]0.67243256
P-vector [z]0.51091145
Q-vector [x]-0.79370512
Q-vector [y]-0.60743406
Q-vector [z]-0.03249690
absolute magnitude15.13
phase slope0.15
uncertainty0
referenceMPEC 2024-C115
observations used813
oppositions16
arc length (days)9190
first opposition used1998
last opposition used2023
residual rms (arc-secs)0.69
perturbers coarse indicatorM-v
perturbers precise indicator003Ek
first observation date used1998-04-28.0
last observation date used2023-06-26.0
computer nameMPCLINUX
JD of orbit computation2456847.861898
perihelion JD uncertainty (days)1.5433E-04
argument of perihelion uncertainty (°)4.0639E-05
ascending node uncertainty (°)2.2778E-05
inclination uncertainty (°)1.0136E-05
eccentricity uncertainty 5.1620E-08
perihelion distance uncertainty (AU)1.4799E-07
Minimum Orbit Intersection Distances (in AU)
for orbit epoch: 2460200.5, reference: E2024-CB5
Mercury1.95445
Venus1.57607
Earth1.32613
Mars0.71359
Jupiter1.77839
Saturn6.50225
Uranus15.9403
Neptune26.7397

Observations

841 total observations over interval: 1998 04 28.15864 – 2023 06 26.197509
These data are available for download (format description).

Date (UT) J2000 RA J2000 Dec Magn Location Ref
1998 04 28.15864 12 48 17.19 +20 21 24.9 18.6   704 – Lincoln Laboratory ETS, New Mexico MPS 44848
1998 04 28.17746 12 48 16.40 +20 21 20.6 18.7   704 – Lincoln Laboratory ETS, New Mexico MPS 44848
1998 04 28.19641 12 48 15.71 +20 21 16.1 18.7   704 – Lincoln Laboratory ETS, New Mexico MPS 44848
1998 04 28.21520 12 48 14.62 +20 21 07.2 19.6   704 – Lincoln Laboratory ETS, New Mexico MPS 44848
1998 04 30.14958 12 47 04.52 +20 10 04.4 18.6   704 – Lincoln Laboratory ETS, New Mexico MPS 44848
1998 04 30.16863 12 47 03.88 +20 09 59.9 19.0   704 – Lincoln Laboratory ETS, New Mexico MPS 44848
1998 04 30.18750 12 47 03.24 +20 09 52.6 19.0   704 – Lincoln Laboratory ETS, New Mexico MPS 44848
1998 04 30.20639 12 47 02.13 +20 09 44.3 19.7   704 – Lincoln Laboratory ETS, New Mexico MPS 44848
2001 09 15.38611 03 56 26.32 +05 05 37.9 20.0   644 – Palomar Mountain/NEAT MPS 44848
2001 09 15.41725 03 56 26.87 +05 05 36.5 20.1   644 – Palomar Mountain/NEAT MPS 44848
2001 09 15.43849 03 56 27.24 +05 05 36.3 19.9   644 – Palomar Mountain/NEAT MPS 44848
2001 09 15.44275 03 56 27.33 +05 05 36.1 19.6   644 – Palomar Mountain/NEAT MPS 44848
2001 09 15.45353 03 56 27.52 +05 05 35.6 19.9   644 – Palomar Mountain/NEAT MPS 44848
2001 09 15.46506 03 56 27.71 +05 05 35.2 19.9   644 – Palomar Mountain/NEAT MPS 44848
2001 10 13.40855 03 55 20.58 +04 40 16.7 18.7 R 699 – Lowell Observatory-LONEOS MPS 44848
2001 10 13.43357 03 55 19.92 +04 40 15.2   699 – Lowell Observatory-LONEOS MPS 44848
2001 10 13.45858 03 55 19.31 +04 40 13.8   699 – Lowell Observatory-LONEOS MPS 44848
2001 10 13.48348 03 55 18.59 +04 40 12.7   699 – Lowell Observatory-LONEOS MPS 44848
2001 10 16.32698 03 54 01.09 +04 37 43.1 19.1   704 – Lincoln Laboratory ETS, New Mexico MPS 44848
2001 10 16.34271 03 54 00.70 +04 37 42.1 19.4   704 – Lincoln Laboratory ETS, New Mexico MPS 44848
2001 10 16.35847 03 54 00.20 +04 37 41.7 18.9   704 – Lincoln Laboratory ETS, New Mexico MPS 44848
2001 10 16.37423 03 53 59.69 +04 37 41.4 19.1   704 – Lincoln Laboratory ETS, New Mexico MPS 44848
2001 10 16.39064 03 53 59.14 +04 37 40.9 19.1   704 – Lincoln Laboratory ETS, New Mexico MPS 44848
2001 10 20.50608 03 51 43.49 +04 34 40.9 19.6   608 – Haleakala-AMOS MPS 44848
2001 10 20.51637 03 51 43.16 +04 34 40.6 19.3   608 – Haleakala-AMOS MPS 44848
2001 10 20.52681 03 51 42.70 +04 34 40.2 19.8   608 – Haleakala-AMOS MPS 44848
2001 11 15.29404 03 29 34.63 +04 48 01.0 18.8   704 – Lincoln Laboratory ETS, New Mexico MPS 42189
2001 11 15.30877 03 29 33.64 +04 48 02.7 19.5   704 – Lincoln Laboratory ETS, New Mexico MPS 42189
2001 11 15.32350 03 29 32.72 +04 48 04.2 19.3   704 – Lincoln Laboratory ETS, New Mexico MPS 42189
2001 11 15.33821 03 29 31.83 +04 48 05.4 18.9   704 – Lincoln Laboratory ETS, New Mexico MPS 42189
2001 11 15.35295 03 29 30.85 +04 48 07.3 19.1   704 – Lincoln Laboratory ETS, New Mexico MPS 42189
2001 11 15.47514 03 29 23.34 +04 48 20.8 18.2   644 – Palomar Mountain/NEAT MPS 44848
2001 11 15.49601 03 29 21.94 +04 48 22.9 19.0   644 – Palomar Mountain/NEAT MPS 44848
2001 11 15.51799 03 29 20.60 +04 48 25.1 19.1   644 – Palomar Mountain/NEAT MPS 44848
2001 11 18.29470 03 26 29.94 +04 54 43.4 19.4   704 – Lincoln Laboratory ETS, New Mexico MPS 42189
2001 11 18.30972 03 26 29.00 +04 54 45.8 19.7   704 – Lincoln Laboratory ETS, New Mexico MPS 42189
2001 11 18.32471 03 26 28.07 +04 54 47.6 19.5   704 – Lincoln Laboratory ETS, New Mexico MPS 42189
2001 11 18.33972 03 26 27.13 +04 54 49.8 19.4   704 – Lincoln Laboratory ETS, New Mexico MPS 42189
2001 11 20.29548 03 24 26.91 +04 59 55.4 18.2 R 699 – Lowell Observatory-LONEOS MPS 44848
2001 11 20.31197 03 24 25.82 +04 59 57.6   699 – Lowell Observatory-LONEOS MPS 44848
2001 11 20.32851 03 24 24.75 +05 00 00.3   699 – Lowell Observatory-LONEOS MPS 44848
2001 11 20.34506 03 24 23.74 +05 00 02.2   699 – Lowell Observatory-LONEOS MPS 44848
2001 11 20.47542 03 24 15.67 +05 00 26.0 19.6   608 – Haleakala-AMOS MPS 44848
2001 11 20.48629 03 24 14.98 +05 00 28.1 19.2   608 – Haleakala-AMOS MPS 44848
2001 11 20.49687 03 24 14.31 +05 00 28.9 19.3   608 – Haleakala-AMOS MPS 44848
2001 12 15.14134 03 02 37.57 +06 54 37.4 18.2   704 – Lincoln Laboratory ETS, New Mexico MPS 44848
2001 12 15.15726 03 02 36.80 +06 54 45.7 18.8   704 – Lincoln Laboratory ETS, New Mexico MPS 44848
2001 12 15.15753 03 02 36.92 +06 54 44.5 19.0   704 – Lincoln Laboratory ETS, New Mexico MPS 44848
2001 12 15.17284 03 02 36.33 +06 54 51.5 19.1   704 – Lincoln Laboratory ETS, New Mexico MPS 44848
2001 12 15.17311 03 02 36.33 +06 54 50.4 19.3   704 – Lincoln Laboratory ETS, New Mexico MPS 44848
2001 12 15.18837 03 02 35.64 +06 54 57.6 18.9   704 – Lincoln Laboratory ETS, New Mexico MPS 44848
2001 12 15.18863 03 02 35.69 +06 54 55.8 18.9   704 – Lincoln Laboratory ETS, New Mexico MPS 44848
2001 12 15.20357 03 02 34.99 +06 55 03.2 18.9   704 – Lincoln Laboratory ETS, New Mexico MPS 44848
2001 12 15.20384 03 02 35.05 +06 55 02.8 19.1   704 – Lincoln Laboratory ETS, New Mexico MPS 44848
2001 12 15.21913 03 02 34.41 +06 55 09.4 18.9   704 – Lincoln Laboratory ETS, New Mexico MPS 44848
2001 12 17.15476 03 01 23.80 +07 07 45.0 19.4   704 – Lincoln Laboratory ETS, New Mexico MPS 44848
2001 12 17.17018 03 01 23.18 +07 07 52.5 20.0   704 – Lincoln Laboratory ETS, New Mexico MPS 44848
2001 12 17.18555 03 01 22.81 +07 07 57.5 19.2   704 – Lincoln Laboratory ETS, New Mexico MPS 44848
2001 12 17.20128 03 01 22.21 +07 08 03.0 19.1   704 – Lincoln Laboratory ETS, New Mexico MPS 44848
2001 12 18.07408 03 00 52.59 +07 13 54.9 19.1   644 – Palomar Mountain/NEAT MPS 46699
2001 12 18.09492 03 00 51.86 +07 14 03.6 18.7   644 – Palomar Mountain/NEAT MPS 46699
2001 12 18.11722 03 00 51.09 +07 14 12.4 18.7   644 – Palomar Mountain/NEAT MPS 46699
2002 01 14.09188 02 56 20.98 +10 52 44.7 19.6   704 – Lincoln Laboratory ETS, New Mexico MPS 55143
2002 01 14.10959 02 56 21.24 +10 52 54.9 19.8   704 – Lincoln Laboratory ETS, New Mexico MPS 55143
2002 01 14.14158 02 56 21.56 +10 53 12.3 19.5   704 – Lincoln Laboratory ETS, New Mexico MPS 55143
2003 02 08.59007 14 03 50.68 +10 32 57.8 19.8   608 – Haleakala-AMOS MPS 73276
2003 02 08.60083 14 03 50.96 +10 32 59.6 20.5   608 – Haleakala-AMOS MPS 73276
2003 02 08.61114 14 03 51.30 +10 33 01.7 20.5   608 – Haleakala-AMOS MPS 73276
2003 03 13.31969 14 04 05.98 +13 30 48.7 18.2   704 – Lincoln Laboratory ETS, New Mexico MPS 74139
2003 03 13.33388 14 04 05.55 +13 30 54.9 18.8   704 – Lincoln Laboratory ETS, New Mexico MPS 74139
2003 03 13.34829 14 04 05.20 +13 30 58.9 18.6   704 – Lincoln Laboratory ETS, New Mexico MPS 74139
2003 03 13.36222 14 04 04.75 +13 31 04.6 18.8   704 – Lincoln Laboratory ETS, New Mexico MPS 74139
2003 03 13.37623 14 04 04.35 +13 31 09.2 19.1   704 – Lincoln Laboratory ETS, New Mexico MPS 74139
2003 03 14.59759 14 03 29.02 +13 38 19.8 21.0   608 – Haleakala-AMOS MPS 74139
2003 03 14.60827 14 03 28.68 +13 38 23.1 21.5   608 – Haleakala-AMOS MPS 74139
2003 03 14.61885 14 03 28.36 +13 38 27.3 21.1   608 – Haleakala-AMOS MPS 74139
2003 03 27.38556 13 55 10.68 +14 45 26.0 17.9 C 704 – Lincoln Laboratory ETS, New Mexico MPS 289759
2003 03 27.39809 13 55 10.01 +14 45 30.5 18.5 C 704 – Lincoln Laboratory ETS, New Mexico MPS 289759
2003 03 27.39820 13 55 10.07 +14 45 30.6 18.4   704 – Lincoln Laboratory ETS, New Mexico MPS 76043
2003 03 27.41030 13 55 09.44 +14 45 32.8 18.4 C 704 – Lincoln Laboratory ETS, New Mexico MPS 289759
2003 03 27.41042 13 55 09.49 +14 45 33.5 18.7   704 – Lincoln Laboratory ETS, New Mexico MPS 76043
2003 03 27.42269 13 55 08.83 +14 45 36.4 18.3 C 704 – Lincoln Laboratory ETS, New Mexico MPS 289759
2003 03 27.42281 13 55 08.96 +14 45 35.9 19.1   704 – Lincoln Laboratory ETS, New Mexico MPS 76043
2003 03 27.43537 13 55 08.25 +14 45 39.7 18.2 C 704 – Lincoln Laboratory ETS, New Mexico MPS 289759
2003 03 27.43549 13 55 08.28 +14 45 40.1 18.9   704 – Lincoln Laboratory ETS, New Mexico MPS 76043
2003 04 10.29760 13 43 00.91 +15 28 16.0 18.6   704 – Lincoln Laboratory ETS, New Mexico MPS 76043
2003 04 10.32112 13 42 59.54 +15 28 18.1 19.3   704 – Lincoln Laboratory ETS, New Mexico MPS 76043
